Location: Lane
(33.5226°N, 79.8788°W)
Time: 05:18:18
(UTC+00:00)

Vanguard 2 - Pass Details

Date: 08 October 2022
Orbit: 553 x 2933 km, 32.9° (Epoch: 26 November)

Event Time Altitude Azimuth Distance (km) Brightness Sun altitude
Rises 14:02:36 0° 197° (SSW) 3,234 10.9 31.1°
Reaches altitude 10° 14:05:30 10° 177° (S) 2,575 10.8 31.6°
Maximum altitude 14:09:38 18° 135° (SE) 2,432 12.0 32.3°
Drops below altitude 10° 14:15:05 10° 95° (E) 3,571 12.0 33.3°
Sets 14:20:09 0° 80° (E) 5,075 12.3 34.1°
